Flag for Poland Weather past 2 weeks in Dąbrowa Górnicza, Poland

Now
64 °F

Clear.


Feels Like: 64 °F
Forecast: 64 / 91 °F
Wind: 5 mph from East

Location: Katowice Airport

Current Time: Aug 31, 2015 at 6:53:17 AM

Latest Report: Aug 31, 2015 at 6:00 AM


Visibility: 10 mi

Pressure: 30.07 "Hg

Humidity: 83%

Dew point: 59 °F

Location of Dąbrowa GórniczaLocation

Historic Weather in Dąbrowa Górnicza — Graph

°F

Dąbrowa Górnicza temperature yesterday

Maximum temperature yesterday: 93 °F (at 3:30 PM)
Minimum temperature yesterday: 57 °F (at 1:30 AM)
Average temperature yesterday: 76 °F

Past Weeks' High & Low Weather Summary

 TemperatureHumidityPressure
High93 °F (Aug 30, 3:30 PM)100% (Aug 16, 1:30 PM)30.30 "Hg (Aug 16, 1:30 PM)
Low46 °F (Aug 22, 6:00 AM)25% (Aug 20, 3:00 PM)29.80 "Hg (Aug 16, 10:30 AM)
Average67 °F63%30.06 "Hg
* Reported Aug 16 5:00 AM — Aug 31 5:30 AM, Dąbrowa Górnicza, Weather by CustomWeather, © 2015

Note: Actual official high and low records may vary slightly from our data, if they occured in-between our weather recording intervals... More about our weather records

Advertising

Dąbrowa Górnicza weather history for previous 24 hours

 ConditionsComfort  
Time TempWeatherWind HumidityBarometerVisibility
5:30 AM
Mon, Aug 31
64 °FClear.6 mph83%30.07 "Hg10 mi
5:00 AM64 °FClear.6 mph83%30.04 "Hg10 mi
4:30 AM64 °FClear.5 mph83%30.07 "Hg10 mi
4:00 AM64 °FClear.5 mph83%30.07 "Hg10 mi
3:30 AM64 °FClear.3 mph83%30.07 "Hg10 mi
3:00 AM64 °FClear.5 mph83%30.07 "Hg10 mi
2:30 AM66 °FClear.2 mph78%30.07 "Hg10 mi
2:00 AM64 °FClear.2 mph83%30.07 "Hg10 mi
1:30 AM68 °FPassing clouds.3 mph73%30.07 "HgN/A
1:00 AM66 °FClear.5 mph78%30.09 "Hg10 mi
12:30 AM66 °FClear.3 mph78%30.09 "Hg10 mi
12:00 AM68 °FPassing clouds.3 mph73%30.09 "HgN/A
11:30 PM
Sun, Aug 30
70 °FClear.2 mph69%30.09 "Hg10 mi
11:00 PM73 °FClear.2 mph57%30.09 "Hg10 mi
10:30 PM70 °FPassing clouds.3 mph69%30.09 "HgN/A
9:30 PM75 °FClear.2 mph57%30.09 "Hg10 mi
9:00 PM75 °FClear.1 mph57%30.09 "Hg10 mi
8:30 PM77 °FSunny.1 mph54%30.09 "Hg10 mi
8:00 PM81 °FSunny.6 mph45%30.09 "Hg10 mi
7:30 PM82 °FSunny.6 mph42%30.09 "Hg10 mi
7:00 PM90 °FSunny.10 mph33%30.07 "Hg10 mi
6:30 PM91 °FSunny.8 mph32%30.07 "Hg10 mi
6:00 PM91 °FSunny.7 mph34%30.07 "Hg10 mi
5:30 PM91 °FPassing clouds.8 mph34%30.07 "HgN/A
5:00 PM93 °FPassing clouds.7 mph32%30.09 "HgN/A
4:30 PM93 °FPassing clouds.8 mph32%30.09 "HgN/A
4:00 PM91 °FSunny.5 mph34%30.09 "Hg10 mi
3:30 PM93 °FSunny.3 mph32%30.12 "Hg10 mi
3:00 PM91 °FPassing clouds.7 mph32%30.12 "HgN/A
2:30 PM91 °FPassing clouds.6 mph34%30.12 "HgN/A
2:00 PM90 °FPassing clouds.6 mph38%30.15 "HgN/A
1:30 PM90 °FSunny.3 mph36%30.15 "Hg10 mi
1:00 PM88 °FSunny.6 mph40%30.15 "Hg10 mi
12:30 PM88 °FPassing clouds.6 mph40%30.15 "HgN/A
12:00 PM88 °FPassing clouds.8 mph40%30.18 "HgN/A
11:30 AM86 °FPassing clouds.9 mph46%30.18 "HgN/A
11:00 AM84 °FPassing clouds.8 mph48%30.18 "HgN/A
10:30 AM82 °FPassing clouds.9 mph51%30.18 "HgN/A
10:00 AM81 °FSunny.10 mph51%30.18 "Hg10 mi
9:30 AM77 °FSunny.8 mph61%30.21 "Hg10 mi
9:00 AM73 °FSunny.9 mph69%30.21 "Hg10 mi
8:30 AM70 °FPassing clouds.7 mph78%30.21 "HgN/A
8:00 AM68 °FClear.9 mph83%30.21 "Hg4 mi
7:30 AM66 °FFog.7 mph88%30.21 "Hg3 mi
7:00 AM63 °FFog.5 mph94%30.21 "Hg2 mi
6:00 AM59 °FFog.3 mph100%30.21 "Hg1 mi
Weather by CustomWeather, © 2015

See weather overviewHow to use our weather pages